Tracking 20945 objects as of 8-Jul-2020
HD Live streaming from Space Station
objects crossing your sky now

FENGYUN 1C DEB

Track FENGYUN 1C DEB now!
10-day predictions


NORAD ID: 37714
Int'l Code: 1999-025EMF
Perigee: 809.0 km
Apogee: 898.2 km
Inclination: 98.9 °
Period: 101.9 minutes
Semi major axis: 7224 km
RCS: 0.001 m2 (small)
Launch date: May 10, 1999
Source: People's Republic of China (PRC)
Launch site: Taiyaun Space Center, China (TSC)

Note: This is SATELLITE DEBRIS
aabbcc
Your satellite tracking list
Your tracking list is empty




NASA's NSSDC Master Catalog

Two Line Element Set (TLE):
1 37714U 99025EMF 20187.94573994 +.00000523 +00000-0 +29479-3 0  9999
2 37714 098.9323 263.1534 0061779 009.4377 350.7941 14.13782630293381
Source of the keplerian elements: AFSPC